TimeMST,TemperatureF,Dew PointF,Humidity,Sea Level PressureIn,VisibilityMPH,Wind Direction,Wind SpeedMPH,Gust SpeedMPH,PrecipitationIn,Events,Conditions,WindDirDegrees,DateUTC
12:53 AM,44.1,33.1,65,30.01,10.0,SE,4.6,-,N/A,,Overcast,130,2012-11-17 07:53:00
1:53 AM,45.0,32.0,60,29.99,10.0,South,8.1,-,N/A,,Overcast,180,2012-11-17 08:53:00
2:53 AM,39.9,34.0,79,29.99,10.0,SE,3.5,-,N/A,,Overcast,140,2012-11-17 09:53:00
3:53 AM,42.1,35.1,76,29.98,10.0,SSE,5.8,-,0.00,,Overcast,150,2012-11-17 10:53:00
4:53 AM,39.9,35.1,83,29.99,10.0,Calm,Calm,-,N/A,,Overcast,0,2012-11-17 11:53:00
5:53 AM,42.1,35.1,76,29.99,10.0,SE,4.6,-,0.00,Rain,Light Rain,130,2012-11-17 12:53:00
6:53 AM,42.1,34.0,73,29.98,10.0,East,3.5,-,0.00,,Overcast,80,2012-11-17 13:53:00
7:53 AM,39.0,35.1,86,30.00,10.0,Calm,Calm,-,N/A,,Overcast,0,2012-11-17 14:53:00
8:53 AM,45.0,35.1,68,29.99,10.0,SE,4.6,-,N/A,,Overcast,140,2012-11-17 15:53:00
9:53 AM,48.9,34.0,56,29.97,10.0,South,9.2,-,N/A,,Mostly Cloudy,180,2012-11-17 16:53:00
10:53 AM,51.1,37.0,59,29.95,10.0,East,3.5,-,N/A,,Clear,80,2012-11-17 17:53:00
11:53 AM,55.9,35.1,45,29.90,10.0,NW,4.6,-,N/A,,Scattered Clouds,320,2012-11-17 18:53:00
12:53 PM,57.0,33.1,40,29.86,10.0,Variable,3.5,-,N/A,,Clear,0,2012-11-17 19:53:00
1:53 PM,57.0,35.1,44,29.85,10.0,SSW,19.6,25.3,N/A,,Mostly Cloudy,210,2012-11-17 20:53:00
2:53 PM,55.9,35.1,45,29.84,10.0,South,17.3,-,N/A,,Overcast,190,2012-11-17 21:53:00
3:53 PM,57.0,35.1,44,29.81,10.0,South,18.4,27.6,N/A,,Overcast,190,2012-11-17 22:53:00
4:53 PM,54.0,36.0,51,29.82,10.0,South,15.0,-,N/A,,Overcast,190,2012-11-17 23:53:00
5:53 PM,52.0,36.0,54,29.81,10.0,SSW,15.0,-,N/A,,Overcast,200,2012-11-18 00:53:00
6:53 PM,51.1,37.9,61,29.83,10.0,SW,13.8,-,0.00,Rain,Light Rain,230,2012-11-18 01:53:00
7:53 PM,48.0,39.9,74,29.83,10.0,SSW,6.9,-,0.02,Rain,Light Rain,200,2012-11-18 02:53:00
8:53 PM,48.9,37.9,66,29.81,10.0,South,6.9,-,0.00,,Overcast,180,2012-11-18 03:53:00
9:53 PM,50.0,37.9,63,29.78,10.0,SSW,16.1,-,N/A,,Overcast,200,2012-11-18 04:53:00
10:53 PM,50.0,37.9,63,29.78,10.0,SSW,18.4,26.5,N/A,,Overcast,210,2012-11-18 05:53:00